Location: Bidwell Hollow
(37.7387°N, 90.1707°W)
Time: 11:34:43
(UTC+00:00)

Explorer 11/Cluster Stage 4 - All Passes

Search period start: 15 May 2026 00:00
Search period end: 25 May 2026 00:00
Orbit: 463 x 1174 km, 28.8° (Epoch: 14 May)

Date Brightness Start Highest point End Pass type
(mag) Time Alt. Az. Time Alt. Az. Time Alt. Az.
15 May - 02:52:42 10° SSW 02:57:25 18° SSE 03:01:45 10° ESE visible
15 May - 04:38:53 10° SW 04:44:45 31° S 04:49:46 10° ESE visible
15 May - 06:26:38 10° WSW 06:32:01 32° S 06:36:29 10° ESE night (unlit)
15 May - 08:15:14 10° WSW 08:18:51 19° SSW 08:22:02 10° SSE night (unlit)
16 May - 02:27:30 10° SSW 02:32:32 19° SSE 02:37:12 10° ESE visible
16 May - 04:13:44 10° SW 04:19:56 32° S 04:25:16 10° ESE visible
16 May - 06:01:32 10° WSW 06:07:16 34° S 06:12:04 10° ESE night (unlit)
16 May - 07:50:10 10° WSW 07:54:10 20° SSW 07:57:39 10° SSE night (unlit)
17 May - 02:02:19 10° SSW 02:07:38 20° SSE 02:12:36 10° ESE visible
17 May - 03:48:37 10° SW 03:55:04 34° S 04:00:43 10° ESE visible
17 May - 05:36:25 10° WSW 05:42:29 36° S 05:47:35 10° ESE visible
17 May - 07:25:05 10° WSW 07:29:28 21° SSW 07:33:16 10° SSE night (unlit)
18 May - 01:37:12 10° SSW 01:42:41 21° SSE 01:47:55 10° ESE visible
18 May - 03:23:29 10° SW 03:30:10 35° S 03:36:06 10° ESE visible
18 May - 05:11:17 10° WSW 05:17:39 37° S 05:23:04 10° ESE visible
18 May - 06:59:58 10° WSW 07:04:44 23° SSW 07:08:51 10° SSE night (unlit)
19 May - 01:12:07 10° SSW 01:17:44 22° SSE 01:23:10 10° ESE daylight
19 May - 02:58:22 10° SW 03:05:14 36° S 03:11:26 10° ESE visible
19 May - 04:46:09 10° WSW 04:52:47 38° S 04:58:29 10° ESE visible
19 May - 06:34:50 10° WSW 06:39:57 24° SSW 06:44:23 10° SSE night (unlit)
20 May - 00:47:05 10° SSW 00:52:45 22° SSE 00:58:21 10° ESE daylight
20 May - 02:33:17 10° SW 02:40:16 37° S 02:46:43 10° ESE visible
20 May - 04:21:02 10° WSW 04:27:53 39° S 04:33:54 10° ESE visible
20 May - 06:09:41 10° WSW 06:15:08 25° SSW 06:19:52 10° SSE night (unlit)
21 May - 00:22:06 10° SSW 00:27:46 23° SSE 00:33:28 10° ESE daylight
21 May - 02:08:15 10° SW 02:15:17 38° S 02:21:56 10° ESE visible
21 May - 03:55:56 10° WSW 04:02:57 40° S 04:09:14 10° ESE visible
21 May - 05:44:32 10° WSW 05:50:17 26° SSW 05:55:19 10° SE visible
21 May - 23:57:10 10° SSW 00:02:47 23° SSE 00:08:31 10° ESE daylight
22 May - 01:43:14 10° SW 01:50:16 38° S 01:57:07 10° ESE visible
22 May - 03:30:51 10° WSW 03:37:59 41° S 03:44:31 10° ESE visible
22 May - 05:19:24 10° WSW 05:25:24 27° SSW 05:30:44 10° SE visible
22 May - 23:32:18 10° SSW 23:37:48 23° SSE 23:43:32 10° ESE daylight
23 May - 01:18:17 10° SW 01:25:15 39° S 01:32:13 10° ESE daylight
23 May - 03:05:48 10° WSW 03:13:00 42° S 03:19:45 10° ESE visible
23 May - 04:54:17 10° WSW 05:00:28 28° SSW 05:06:04 10° SE visible
23 May - 06:46:20 10° SW 06:47:17 10° SW 06:48:13 10° SSW night (unlit)
23 May - 23:07:30 10° SSW 23:12:50 22° SSE 23:18:29 10° ESE daylight
24 May - 00:53:22 10° SW 01:00:14 39° S 01:07:17 10° ESE daylight
24 May - 02:40:47 10° WSW 02:47:59 42° S 02:54:55 10° ESE visible
24 May - 04:29:11 10° WSW 04:35:31 29° SSW 04:41:21 10° SE visible
24 May - 06:20:40 10° SW 06:22:25 11° SSW 06:24:07 10° SSW night (unlit)
24 May - 22:42:45 10° SSW 22:47:53 22° SSE 22:53:24 10° ESE daylight
